Погода в Нурафшоне

Узбекистан     41°02′33″N   69°21′27″E
темп.,
°C
ветер,
м/с
пор.,
м/с
влажн.,
%
обл.,
%
осадки,
мм/ч
давл.,
гПа
погр.,
м
3 марта, ср
ср323:00+9с2356100 0.0 102451
02:00+9всв2263100 0.1 102445
05:00+8ююв3478100 0.1 1024154
08:00+7ю247774 0.0 1024164
11:00+11ююз345937 0.0 1023851
14:00+14ююз33504 0.0 10211249
17:00+14зюз22452 0.0 10201493
20:00+11сз125884 0.0 102223
4 марта, чт
чт423:00+9сз006370 0.0 102222
02:00+8вюв33610 0.0 102160
05:00+8вюв23600 0.0 102033
08:00+9юв12593 0.0 102047
11:00+15ююв354352 0.0 1018524
14:00+17зюз5538100 0.0 10161658
17:00+13с2360100 0.2 1017300
20:00+12юв5962100 0.1 1019211
5 марта, пт
пт523:00+8ссз4786100 0.8 1023511
02:00+6ссз5778100 2.3 1026733
05:00+5зсз1284100 4.7 1029391
08:00+5с457890 0.1 1031315
11:00+8с126067 0.1 1029891
14:00+11ссв23380 0.0 10271184
17:00+12с23360 0.0 1025859
20:00+9с22460 0.0 102524
6 марта, сб
сб623:00+7св345617 0.0 102272
02:00+7всв234968 0.0 101933
05:00+6св234484 0.0 101527
08:00+8ссв2242100 0.0 101330
11:00+12зсз3332100 0.0 1011244
14:00+14з2330100 0.0 1012703
17:00+12зсз5744100 0.0 1012451
20:00+10зюз2356100 0.0 1013114
7 марта, вс
вс723:00+9зсз3460100 0.0 1015189
02:00+7ююз2382100 1.5 1016275
05:00+7з1187100 2.4 1017186
08:00+7юв4481100 0.6 1019493
11:00+8вюв2275100 0.8 1019578
14:00+9всв2269100 0.1 1018708
17:00+10св1160100 0.1 1018778
20:00+8с237099 0.0 101846